This is the latest recevied weather packets stored in our database for station/object YF9UAG-17. If no packets are shown the sender has not sent any weather packets the latest 10 day(s).
| Time | Temp. | Humidity | Pressure | Rain* | Wind** | Luminosity | Snow |
|---|---|---|---|---|---|---|---|
| 1787631212 | 28.33° C | 48% | 1033.1 hPa | - | - | - | - |
| 1787630609 | 27.78° C | 50% | 1033.3 hPa | - | - | - | - |
| 1787630005 | 27.78° C | 48% | 1033.5 hPa | - | - | - | - |
| 1787629402 | 27.78° C | 50% | 1033.7 hPa | - | - | - | - |
| 1787628797 | 27.22° C | 52% | 1034 hPa | - | - | - | - |
| 1787628194 | 27.22° C | 52% | 1034.2 hPa | - | - | - | - |
| 1787627590 | 27.78° C | 52% | 1034.4 hPa | - | - | - | - |
| 1787626987 | 26.67° C | 53% | 1034.6 hPa | - | - | - | - |
| 1787626384 | 27.22° C | 53% | 1034.8 hPa | - | - | - | - |
| 1787625781 | 26.67° C | 54% | 1034.9 hPa | - | - | - | - |
| 1787625178 | 26.67° C | 55% | 1035 hPa | - | - | - | - |
| 1787624574 | 26.67° C | 57% | 1035.1 hPa | - | - | - | - |
| 1787623971 | 26.67° C | 56% | 1035.3 hPa | - | - | - | - |
| 1787623368 | 26.67° C | 54% | 1035.3 hPa | - | - | - | - |
| 1787622765 | 26.11° C | 56% | 1035.3 hPa | - | - | - | - |
| 1787622162 | 26.11° C | 55% | 1035.4 hPa | - | - | - | - |
| 1787621558 | 26.67° C | 54% | 1035.4 hPa | - | - | - | - |
| 1787620954 | 27.22° C | 52% | 1035.4 hPa | - | - | - | - |
| 1787620351 | 26.11° C | 54% | 1035.4 hPa | - | - | - | - |
| 1787619747 | 26.11° C | 52% | 1035.3 hPa | - | - | - | - |
| 1787619143 | 26.11° C | 51% | 1035.3 hPa | - | - | - | - |
| 1787618539 | 26.11° C | 48% | 1035.2 hPa | - | - | - | - |
| 1787617936 | 26.11° C | 49% | 1035.1 hPa | - | - | - | - |
| 1787617333 | 26.11° C | 51% | 1035 hPa | - | - | - | - |
| 1787616730 | 26.11° C | 53% | 1034.9 hPa | - | - | - | - |
* Rain since midnight (hover to see other rain measurements)
** Current wind speed in m/s (hover to see current wind gust speed)